Location: Bagnolo San Vito
(45.0833°N, 10.8833°E)
Time: 22:56:13
(UTC+00:00)

Lacrosse 4 Rocket - Pass Details

Date: 03 March 2021
Orbit: 537 x 620 km, 68.0° (Epoch: 17 April)

Event Time Altitude Azimuth Distance (km) Brightness Sun altitude
Rises 19:09:45 0° 201° (SSW) 2,812 5.0 -22.4°
Reaches altitude 10° 19:11:58 10° 198° (SSW) 1,929 4.1 -22.8°
Enters shadow 19:14:28 34° 187° (S) 1,008 2.5 -23.2°
